Regional Weather Roundup
Issued by NWS

Home | Current Version | Previous Version | Graphics & Text | Print | Product List | Glossary On
Versions: 1 2 3 4 5 6 7 8 9 10 11 12 13 14 15 16 17 18 19 20 21 22 23 24 25 26 27 28 29 30 31 32 33 34 35 36 37 38 39 40 41 42 43 44 45 46 47 48 49 50
000
ASUS43 KMKX 290311
RWRWI

WISCONSIN REGIONAL WEATHER ROUNDUP
NATIONAL WEATHER SERVICE MILWAUKEE/SULLIVAN WI
1000 PM CDT SUN MAY 28 2017

NOTE: "FAIR" INDICATES FEW OR NO CLOUDS BELOW 12,000 FEET WITH NO
SIGNIFICANT WEATHER AND/OR OBSTRUCTIONS TO VISIBILITY.

WIZ001-002-006>008-014>016-023>028-290400-
NORTHWEST WISCONSIN

CITY           SKY/WX    TMP DP  RH WIND       PRES   REMARKS
SUPERIOR ARPT  NOT AVBL
ASHLAND        MOCLDY    51  49  92 S3        29.64F
HAYWARD        CLOUDY    56  45  66 SW6       29.67S
SIREN          PTCLDY    53  50  91 CALM        N/A
CUMBERLAND     NOT AVBL
RICE LAKE      CLEAR     55  52  90 SW3       29.71S
CHETEK         CLEAR     52  51  97 CALM      29.70S
LADYSMITH      CLEAR     52  49  89 SW7       29.71S
EAU CLAIRE     CLEAR     53  50  89 SW3       29.70F
MENOMONIE      CLEAR     56  48  74 CALM      29.71F
NEW RICHMOND   LGT RAIN  53  48  81 N8        29.74R
OSCEOLA        LGT RAIN  55  49  81 N3        29.73F
$$

WIZ003>005-009-010-017-018-290400-
NORTH CENTRAL WISCONSIN

CITY           SKY/WX    TMP DP  RH WIND       PRES   REMARKS
MANITOWISH WTR MOCLDY    51  51 100 CALM      29.66S
ARBOR VITAE    PTCLDY    52  50  94 CALM      29.66S
WOODRUFF       PTCLDY    52  50  94 CALM      29.66S
RHINELANDER    PTCLDY    54  49  83 CALM      29.67F
EAGLE RIVER    CLEAR     50  46  86 CALM      29.66F
LAND O LAKES   MOCLDY    50  50 100 CALM      29.67F
PHILLIPS       MOCLDY    53  49  87 SW5       29.66F
TOMAHAWK       CLOUDY    51  46  85 CALM      29.67F
MEDFORD        CLEAR     52  48  86 SW5       29.69S
MERRILL        CLOUDY    55  50  84 W3        29.69R
$$

WIZ029-030-035-036-043>047-290400-
CENTRAL WISCONSIN

CITY           SKY/WX    TMP DP  RH WIND       PRES   REMARKS
WAUSAU         CLOUDY    55  49  80 SW6       29.68F
MOSINEE        PTCLDY    54  48  82 W6        29.71F
MARSHFIELD     CLEAR     51  48  89 SW7       29.70F
STEVENS POINT  CLOUDY    58  46  64 W6        29.71S
WAUPACA        MOCLDY    65  46  50 NW10G18   29.72R
WAUTOMA        MOCLDY    61  48  62 SW5       29.71R
WISC RAPIDS    CLOUDY    58  48  69 NW6       29.73R
CAMP DOUGLAS   CLEAR     54  45  71 NW5       29.73R
$$

WIZ011>013-019>022-031-037>040-048>050-290400-
NORTHEAST WISCONSIN

CITY           SKY/WX    TMP DP  RH WIND       PRES   REMARKS
ANTIGO         MOCLDY    53  49  86 W5        29.69F
SHAWANO        PTCLDY    62  47  56 W6        29.69S
OCONTO         CLOUDY    59  53  80 CALM      29.67R
STURGEON BAY   CLEAR     56  54  93 SW5       29.68R
GREEN BAY      MOCLDY    60  52  74 W7        29.69R
MANITOWOC      CLEAR     63  46  54 W3        29.70R
APPLETON       MOCLDY    61  45  55 W7        29.69R
CLINTONVILLE   CLEAR     61  43  51 W6        29.70R
OSHKOSH        CLEAR     63  47  55 SW3       29.70R
$$

WIZ032>034-041-042-053>061-290400-
SOUTHWEST WISCONSIN

CITY           SKY/WX    TMP DP  RH WIND       PRES   REMARKS
LA CROSSE      CLEAR     64  47  53 W6        29.72S
SPARTA         PTCLDY    61  47  60 NW7       29.74R
VIROQUA        CLEAR     62  42  48 CALM      29.75R
BOSCOBEL       CLEAR     59  52  77 W3        29.75R
PRAIRIE DU CHI CLEAR     60  48  65 CALM      29.75R
PLATTEVILLE    CLEAR     62  48  60 SW3       29.77R
$$

WIZ056-057-062-063-064-067-068-290400-
SOUTH CENTRAL WISCONSIN

CITY           SKY/WX    TMP DP  RH WIND       PRES   REMARKS
REEDSBURG      CLEAR     61  46  56 CALM      29.73R
BARABOO/DELLS  CLEAR     60  43  52 SW3       29.74R
LONE ROCK      CLEAR     59  48  67 CALM      29.74R
MINERAL POINT  CLEAR     63  45  51 SW3       29.76S
MADISON        CLEAR     61  47  59 SW3       29.74R
MIDDLETON      CLEAR     56  50  80 CALM      29.75R
WATERTOWN      CLEAR     60  48  65 CALM      29.73R
MONROE         PTCLDY    61  46  59 SW6       29.77R
JANESVILLE     PTCLDY    59  54  82 SW3       29.76R
$$

WIZ051-052-058>065-066-070>072-290400-
SOUTHEAST WISCONSIN

CITY           SKY/WX    TMP DP  RH WIND       PRES   REMARKS
MILWAUKEE      CLEAR     66  47  50 SW5       29.73R
WAUKESHA       NOT AVBL
MILWAUKEE/TIMM   N/A     63  43  48 SW3       29.74R
RACINE         CLEAR     62  46  55 SW5       29.76R
KENOSHA        CLEAR     57  48  72 SW6       29.75R
FOND DU LAC    CLEAR     60  48  64 SW5       29.71R
SHEBOYGAN      CLEAR     59  52  77 S3        29.71R
WEST BEND      CLEAR     59  48  67 SW5       29.73R
JUNEAU         CLEAR     60  47  62 CALM      29.74R
$$

LSZ147-162-290400-
LAKE SUPERIOR

STATION/POSITION TIME  TEMP    WIND        PRES    WAVE
                       AIR SEA DIR/SP/G            HT/PER
                 (UTC) (F)     (DEG/KT/KT) (MB)    (FT/S)
W MID LAKE BUOY  0150   43 37  220/ 10/ 10 1003.2F   0
DEVILS ISLAND    0300   50     230/ 10/ 10 1003.3F
PORT WING        0230   57     200/  4/  6 1003.7F
SAXON HARBOR     0230   55     200/  2/  4 1003.4F
$$

LMZ867-665-643>646-290400-
LAKE MICHIGAN

STATION/POSITION TIME  TEMP    WIND        PRES    WAVE
                       AIR SEA DIR/SP/G            HT/PER
                 (UTC) (F)     (DEG/KT/KT) (MB)    (FT/S)
CHAMBERS ISLAND  0230   53      CALM  /  2 1004.1S
N MID LAKE BUOY  0250   46 42  160/  6/  6 1005.5S   0
NORTHPORT PIER   0230   50     180/  6/  8 1004.4S
KEWAUNEE LAKESHO 0248   62     260/  1/  3 1004.6R
SHEBOYGAN LAKESH 0300   66     250/  5/  5 1005.6R
PORT WASHINGTON  0230   64     270/  3/  4 1007.1S
ATWATER BUOY     0209   64     260/  8/  8 1006.8R
MILWAUKEE LAKESH 0250   69     270/  7/  8   N/A
S MID LAKE BUOY  0250   51 49  230/ 10/ 12 1007.2R   0
KENOSHA   LAKESH 0300   68     260/  5/  8 1007.5
$$

TC  - TEMPERATURE IN CELSIUS
VSB - VISIBILITY IN STATUTE MILES
WCI - WIND CHILL INDEX
HX  - HEAT INDEX





USA.gov is the U.S. government's official web portal to all federal, state and local government web resources and services.